Bookmark and Share
Track history (hours):
 

Ternholm

Last reported at 2014-Apr-19 06:33 UTC. Time now 2014-Apr-19 07:03 UTC.
Position N 57°40' E 011°47'.

Length 141 m; draft 8.8 m.

Type: Ship (hazmat cat C). MMSI: 219076000.

NotesDate/timePositionNaut miles runAvg speedWind from/ knotsBaromVisibWave heightAir tempDewpointWater temp
2014-Apr-19 06:33N 57°40' E 011°47'3 2.9
2014-Apr-19 05:32N 57°41' E 011°52'0 0.0
2014-Apr-19 04:32N 57°41' E 011°52'0 0.0
2014-Apr-19 03:32N 57°41' E 011°52'0 0.0
2014-Apr-19 02:29N 57°41' E 011°52'0 0.0
2014-Apr-19 01:32N 57°41' E 011°52'0 0.0
2014-Apr-19 00:32N 57°41' E 011°52'0 0.0
2014-Apr-18 23:31N 57°41' E 011°52'0 0.0
2014-Apr-18 22:31N 57°41' E 011°52'0 0.0
2014-Apr-18 21:31N 57°41' E 011°52'0 0.0
2014-Apr-18 20:31N 57°41' E 011°52'0 0.0
2014-Apr-18 19:31N 57°41' E 011°52'0 0.0
2014-Apr-18 18:31N 57°41' E 011°52'0 0.0
2014-Apr-18 17:31N 57°41' E 011°52'0 0.0
2014-Apr-18 16:31N 57°41' E 011°52'0 0.0
2014-Apr-18 15:31N 57°41' E 011°52'0 0.0
2014-Apr-18 14:31N 57°41' E 011°52'0 0.0
2014-Apr-18 13:31N 57°41' E 011°52'0 0.0
2014-Apr-18 12:31N 57°41' E 011°52'0 0.0
2014-Apr-18 11:31N 57°41' E 011°52'0 0.0
2014-Apr-18 10:31N 57°41' E 011°52'0 0.0
2014-Apr-18 09:31N 57°41' E 011°52'4 4.2
2014-Apr-18 08:34N 57°39' E 011°46'1010.2
2014-Apr-18 07:33N 57°30' E 011°38'1110.8
2014-Apr-18 06:33N 57°20' E 011°46'1010.5
2014-Apr-18 05:33N 57°11' E 011°55'1211.0
2014-Apr-18 04:30N 56°60' E 012°01'1111.2
2014-Apr-18 03:33N 56°49' E 012°07'1211.2
2014-Apr-18 02:30N 56°38' E 012°13'1010.7
2014-Apr-18 01:34N 56°29' E 012°18'1111.0
2014-Apr-18 00:33N 56°18' E 012°24'1110.7
2014-Apr-17 23:34N 56°08' E 012°31'1111.0
2014-Apr-17 22:34N 55°59' E 012°42'1111.0
2014-Apr-17 21:33N 55°48' E 012°47'1110.5
2014-Apr-17 20:34N 55°39' E 012°57'1110.7
2014-Apr-17 19:34N 55°31' E 012°45'1211.9
2014-Apr-17 18:34N 55°20' E 012°40'1111.1
2014-Apr-17 17:34N 55°16' E 012°58'1211.5
2014-Apr-17 16:34N 55°15' E 013°18'1211.7
2014-Apr-17 15:34N 55°14' E 013°39'1212.1
2014-Apr-17 14:34N 55°14' E 013°60'1111.3
2014-Apr-17 13:33N 55°16' E 014°19'1211.6
2014-Apr-17 12:34N 55°25' E 014°32'1111.2
2014-Apr-17 11:34N 55°31' E 014°48'1211.4
2014-Apr-17 10:33N 55°37' E 015°06'1111.4
2014-Apr-17 09:34N 55°42' E 015°23'1211.5
2014-Apr-17 08:34N 55°48' E 015°41'1211.5
2014-Apr-17 07:32N 55°54' E 015°59'1111.5
2014-Apr-17 06:34N 55°60' E 016°16'1111.4
2014-Apr-17 05:34N 56°05' E 016°34'23911.4
2014-Apr-16 08:33N 59°04' E 021°30'1211.6
2014-Apr-16 07:32N 59°12' E 021°46'1111.6
2014-Apr-16 06:33N 59°19' E 022°03'1211.6
2014-Apr-16 05:33N 59°26' E 022°21'1111.5
2014-Apr-16 04:33N 59°33' E 022°40'1111.5
2014-Apr-16 03:33N 59°36' E 023°01'1111.4
2014-Apr-16 02:33N 59°39' E 023°23'1211.5
2014-Apr-16 01:33N 59°42' E 023°45'1111.3
2014-Apr-16 00:33N 59°45' E 024°07'1211.4
2014-Apr-15 23:29N 59°48' E 024°30'1511.4
2014-Apr-15 22:12N 59°51' E 024°58'4410.7
2014-Apr-15 18:08N 60°08' E 026°19'711.9
2014-Apr-15 17:33N 60°14' E 026°25'1211.9
2014-Apr-15 16:33N 60°22' E 026°42'1111.3
2014-Apr-15 15:33N 60°22' E 027°05'9 9.4
2014-Apr-15 14:33N 60°31' E 027°10'0 0.0
2014-Apr-15 12:31N 60°31' E 027°10'0 0.0
2014-Apr-15 11:31N 60°31' E 027°10'0 0.0
2014-Apr-15 10:31N 60°31' E 027°10'0 0.0
2014-Apr-15 09:31N 60°31' E 027°10'0 0.0
2014-Apr-15 08:31N 60°31' E 027°10'0 0.0
2014-Apr-15 03:31N 60°31' E 027°10'0 0.0
2014-Apr-15 02:31N 60°31' E 027°10'0 0.0
2014-Apr-15 00:31N 60°31' E 027°10'0 0.0
2014-Apr-14 23:34N 60°31' E 027°10'0 0.0
2014-Apr-14 22:34N 60°31' E 027°10'0 0.0
2014-Apr-14 21:34N 60°31' E 027°10'0 0.0
2014-Apr-14 19:31N 60°31' E 027°10'11 3.7
2014-Apr-14 16:34N 60°21' E 027°01'1211.7
2014-Apr-14 15:34N 60°20' E 026°37'1211.6
2014-Apr-14 14:34N 60°11' E 026°22'5511.0
2014-Apr-14 09:34N 59°46' E 024°44'1211.6
2014-Apr-14 08:33N 59°43' E 024°22'33811.6
2014-Apr-13 03:27N 55°57' E 016°30'3311.3
2014-Apr-13 00:32N 55°42' E 015°38'1111.3
2014-Apr-12 23:33N 55°37' E 015°21'1111.5
2014-Apr-12 22:33N 55°32' E 015°03'1111.4
2014-Apr-12 21:33N 55°26' E 014°45'1111.1
2014-Apr-12 20:33N 55°18' E 014°31'1111.4
2014-Apr-12 19:33N 55°09' E 014°19'1211.5
2014-Apr-12 18:33N 55°01' E 014°05'1211.5
2014-Apr-12 17:33N 54°57' E 013°46'1111.4
2014-Apr-12 16:34N 54°53' E 013°27'1211.5
2014-Apr-12 15:33N 54°50' E 013°08'1111.4
2014-Apr-12 14:34N 54°47' E 012°49'1111.2
2014-Apr-12 13:33N 54°41' E 012°33'1211.6
2014-Apr-12 12:34N 54°34' E 012°17'1110.7
2014-Apr-12 11:34N 54°25' E 012°07'1212.0
2014-Apr-12 10:34N 54°25' E 011°46'1111.4
2014-Apr-12 09:34N 54°30' E 011°29'1211.8
2014-Apr-12 08:34N 54°35' E 011°11'115 9.5
2014-Apr-11 20:28N 56°30' E 011°36'1010.7
2014-Apr-11 19:33N 56°38' E 011°45'1010.0
2014-Apr-11 18:33N 56°48' E 011°51'1110.9
2014-Apr-11 17:33N 56°58' E 011°44'1111.3
2014-Apr-11 16:33N 57°08' E 011°37'1111.2
2014-Apr-11 15:33N 57°19' E 011°31'1110.7
2014-Apr-11 14:33N 57°30' E 011°31'1010.2
2014-Apr-11 13:33N 57°38' E 011°42'7 6.5
2014-Apr-11 12:34N 57°41' E 011°52'0 0.0
2014-Apr-11 11:32N 57°41' E 011°52'0 0.0
2014-Apr-11 10:32N 57°41' E 011°52'0 0.0
2014-Apr-11 09:32N 57°41' E 011°52'0 0.0
2014-Apr-11 08:32N 57°41' E 011°52'0 0.0
2014-Apr-11 07:29N 57°41' E 011°52'0 0.0
2014-Apr-11 06:32N 57°41' E 011°52'0 0.0
2014-Apr-11 05:32N 57°41' E 011°52'0 0.0
2014-Apr-11 04:32N 57°41' E 011°52'0 0.0
2014-Apr-11 03:32N 57°41' E 011°52'0 0.0
2014-Apr-11 02:32N 57°41' E 011°52'0 0.0
2014-Apr-11 01:32N 57°41' E 011°52'0 0.0
2014-Apr-11 00:32N 57°41' E 011°52'0 0.0
2014-Apr-10 23:32N 57°41' E 011°52'0 0.0
2014-Apr-10 22:32N 57°41' E 011°52'0 0.0
2014-Apr-10 21:32N 57°41' E 011°52'0 0.0
2014-Apr-10 20:32N 57°41' E 011°52'0 0.0
2014-Apr-10 19:32N 57°41' E 011°52'0 0.0
2014-Apr-10 18:32N 57°41' E 011°52'0 0.0
2014-Apr-10 17:32N 57°41' E 011°52'0 0.0
2014-Apr-10 16:31N 57°41' E 011°52'0 0.0
2014-Apr-10 15:31N 57°41' E 011°52'0 0.0
2014-Apr-10 14:31N 57°41' E 011°52'0 0.0
2014-Apr-10 13:31N 57°41' E 011°52'0 0.0
2014-Apr-10 12:31N 57°41' E 011°52'0 0.0
2014-Apr-10 11:31N 57°41' E 011°52'0 0.0
2014-Apr-10 10:31N 57°41' E 011°52'0 0.0
2014-Apr-10 09:31N 57°41' E 011°52'0 0.0
2014-Apr-10 08:31N 57°41' E 011°52'0 0.0
2014-Apr-10 07:31N 57°41' E 011°52'0 0.0
2014-Apr-10 06:31N 57°41' E 011°52'0 0.0
2014-Apr-10 05:31N 57°41' E 011°52'0 0.0
2014-Apr-10 04:31N 57°41' E 011°52'0 0.0
2014-Apr-10 03:31N 57°41' E 011°52'0 0.0
2014-Apr-10 02:31N 57°41' E 011°52'0 0.2
2014-Apr-10 01:34N 57°41' E 011°53'7 7.2
2014-Apr-10 00:34N 57°37' E 011°41'5 4.6
2014-Apr-09 23:32N 57°33' E 011°38'0 0.0
2014-Apr-09 22:32N 57°33' E 011°38'0 0.0
2014-Apr-09 21:32N 57°33' E 011°38'0 0.0
2014-Apr-09 20:32N 57°33' E 011°38'0 0.0
2014-Apr-09 19:32N 57°33' E 011°38'0 0.0
2014-Apr-09 18:32N 57°33' E 011°38'0 0.0
2014-Apr-09 17:32N 57°33' E 011°38'0 0.0
2014-Apr-09 16:32N 57°33' E 011°38'0 0.0
2014-Apr-09 15:32N 57°33' E 011°38'0 0.0
2014-Apr-09 14:32N 57°33' E 011°38'0 0.0
2014-Apr-09 13:32N 57°33' E 011°38'0 0.0
2014-Apr-09 12:32N 57°33' E 011°38'0 0.0
2014-Apr-09 11:32N 57°33' E 011°38'0 0.0
2014-Apr-09 10:32N 57°33' E 011°38'0 0.0
2014-Apr-09 09:32N 57°33' E 011°38'0 0.0
2014-Apr-09 08:31N 57°33' E 011°38'0 0.0
2014-Apr-09 07:31N 57°33' E 011°38'  

Dump ship's entire track history

sailing weather and tide predictions

Ternholm — OWIM2 — position and weather